{"data":{"norad_id":51628,"epoch":"2026-09-20T02:19:47.858016Z","epoch_age_seconds":60486,"freshness":"FRESH","line1":"1 51628U 22012G   26263.09708169  .00000395  00000+0  10955-2 0  9996","line2":"2 51628  87.8913  17.3726 0002024 116.2321 243.9015 13.10371269221754","mean_motion":13.10371269,"eccentricity":0.0002024,"inclination_deg":87.8913,"raan_deg":17.3726,"arg_perigee_deg":116.2321,"mean_anomaly_deg":243.9015,"bstar":0.0010955,"rev_number":22175,"period_min":109.89251932385,"perigee_km":1220.184924449,"apogee_km":1223.2613478321,"semimajor_km":7599.8601361406,"source":"CELESTRAK","updated_at":"2026-09-20T09:00:44.708839Z"}}